Location: Okie-Tex Star Party
(36.8978°N, 102.9520°W)
Time: 00:59:19
(UTC-06:00)

Amateur Radio Satellites - All Passes

Search period start: 13 December 2017 00:29
Search period end: 14 December 2017 00:29
Location: Okie-Tex Star Party, 36.8978°N, 102.9520°W

Satellite Date Start Highest point End Downlink Frequencies (MHz)
Time Altitude Azimuth
FALCONSAT 3 13 Dec 00:51:21 00:54:58 58° 170° (S) 00:58:35 435.103
QB50P2 13 Dec 00:51:22 00:55:36 88° 283° (WNW) 00:59:49 145.880/145.840
AIST 2D 13 Dec 00:59:34 01:01:56 17° 290° (WNW) 01:04:19 435.315
DUCHIFAT 1 13 Dec 00:59:52 01:04:04 77° 103° (ESE) 01:08:15 145.980
UKube-1 13 Dec 01:10:03 01:12:40 16° 66° (ENE) 01:15:17 .
SPROUT 13 Dec 01:14:29 01:18:14 30° 263° (W) 01:22:00 437.525
Gurwin Techsat 1B 13 Dec 01:17:00 01:17:37 10° 90° (E) 01:18:14 435.225
DX 1 13 Dec 01:19:54 01:23:51 34° 71° (ENE) 01:27:47 434.975-435.025
NANOSAT C BR1 13 Dec 01:25:18 01:29:17 44° 287° (WNW) 01:33:16 145.865
SO-50 13 Dec 01:30:27 01:35:05 62° 58° (ENE) 01:39:47 436.795
EO-79 13 Dec 01:39:37 01:43:09 27° 290° (WNW) 01:46:41 145.935-145.965
BUGSAT 1 13 Dec 01:48:28 01:52:28 61° 101° (E) 01:56:29 437.445
AO-91 13 Dec 01:48:36 01:51:24 22° 96° (E) 01:54:07 145.960
VELOX 1 13 Dec 01:54:55 01:58:09 20° 265° (W) 02:01:24 145.980
MOZHAYETS 4 13 Dec 01:58:58 02:00:13 11° 63° (ENE) 02:01:28
POLYITAN 1 13 Dec 02:02:54 02:05:26 16° 293° (WNW) 02:07:57 437.675
50 SAT 13 Dec 02:07:22 02:10:27 47° 260° (W) 02:13:33 437.505
Oscar 19 13 Dec 02:26:36 02:31:50 80° 105° (ESE) 02:37:01 437.125/150
ITUPSAT 1 13 Dec 02:27:29 02:30:30 17° 65° (ENE) 02:33:31 437.325
FALCONSAT 3 13 Dec 02:30:18 02:33:57 67° 185° (S) 02:37:36 435.103
RS-15 13 Dec 02:35:39 02:45:41 36° 255° (WSW) 02:55:19 29.354- 29.394
UKube-1 13 Dec 02:44:14 02:48:19 41° 261° (W) 02:52:24 .
YUBILEINY 13 Dec 02:45:54 02:52:47 27° 83° (E) 02:59:42 435.215
Gurwin Techsat 1B 13 Dec 02:52:47 02:58:07 82° 285° (WNW) 03:03:25 435.225
DX 1 13 Dec 02:56:58 03:00:04 19° 265° (W) 03:03:09 434.975-435.025
SO-50 13 Dec 03:12:51 03:15:02 13° 252° (WSW) 03:17:13 436.795
CUBESAT XI-V 13 Dec 03:15:04 03:18:07 18° 66° (ENE) 03:21:12 437.345
AO-91 13 Dec 03:25:40 03:27:42 15° 292° (WNW) 03:29:41 145.960
MOZHAYETS 4 13 Dec 03:32:14 03:36:45 67° 258° (WSW) 03:41:18
PCSat 13 Dec 03:35:22 03:38:00 13° 45° (NE) 03:40:38 145.827
ITAMSAT 1 13 Dec 03:35:50 03:39:17 18° 94° (E) 03:42:41 435.822/435.867
BEESAT 13 Dec 03:36:04 03:40:49 89° 256° (WSW) 03:45:36 436.000
AO-7 13 Dec 03:46:22 03:54:12 42° 100° (E) 04:01:59 .
KKS-1 13 Dec 04:03:06 04:03:38 10° 63° (ENE) 04:04:10 437.445
ITUPSAT 1 13 Dec 04:03:21 04:07:54 46° 260° (W) 04:12:30 437.325
Oscar 19 13 Dec 04:08:33 04:10:24 12° 299° (WNW) 04:12:16 437.125/150
FALCONSAT 3 13 Dec 04:09:30 04:12:48 31° 200° (SSW) 04:16:05 435.103
M-CUBED/EXP-1 PRIME 13 Dec 04:40:02 04:44:34 76° 290° (WNW) 04:48:48 437.505
YUBILEINY 13 Dec 04:40:14 04:48:53 60° 281° (W) 04:57:38 435.215
STARS 13 Dec 04:49:45 04:51:48 13° 65° (ENE) 04:53:51 437.465
CUBESAT XI-V 13 Dec 04:50:43 04:55:06 42° 261° (W) 04:59:34 437.345
ITAMSAT 1 13 Dec 05:13:59 05:18:57 48° 288° (WNW) 05:23:54 435.822/435.867
PCSat 13 Dec 05:16:43 05:22:10 88° 63° (ENE) 05:27:34 145.827
DOVE 4 13 Dec 05:27:53 05:32:12 45° 98° (E) 05:36:17 437.250
KKS-1 13 Dec 05:35:06 05:39:32 71° 257° (WSW) 05:44:01 437.445
BEESAT 3 13 Dec 05:35:18 05:38:33 24° 52° (NE) 05:41:45 437.485
AO-7 13 Dec 05:39:11 05:46:51 42° 297° (WNW) 05:54:29 .
JUGNU 13 Dec 05:55:13 05:58:01 14° 174° (S) 06:00:49 437.505
STRAND 1 13 Dec 06:10:00 06:12:10 13° 62° (ENE) 06:14:20 437.568
BEESAT 2 13 Dec 06:11:11 06:13:56 18° 49° (NE) 06:16:40 435.950
LilacSat-2 13 Dec 06:19:01 06:22:25 28° 97° (E) 06:25:46 437.200
HO-68 13 Dec 06:19:08 06:21:31 12° 89° (E) 06:23:52 435.675
STARS 13 Dec 06:23:22 06:27:39 52° 259° (W) 06:31:57 437.465
CUTE-I 13 Dec 06:27:14 06:31:48 28° 96° (E) 06:36:19 437.470
XW-2D 13 Dec 06:35:34 06:39:16 44° 99° (E) 06:42:56 145.860 - 145.880
AO-85 13 Dec 06:44:08 06:47:02 16° 47° (NE) 06:50:01 145.980
NUDT-PHONESAT 13 Dec 06:47:55 06:51:28 39° 99° (E) 06:54:59 437.300
KAITUO 1B 13 Dec 06:48:26 06:52:05 43° 99° (E) 06:55:41 145.475/437.950
XW-2B 13 Dec 06:51:16 06:55:07 70° 102° (ESE) 06:58:55 145.730 - 145.750
XW-2F 13 Dec 07:04:56 07:08:46 82° 283° (WNW) 07:12:35 145.980 - 146.000
DOVE 4 13 Dec 07:06:58 07:09:25 15° 295° (WNW) 07:11:47 437.250
CUTE 1.7 + AOD 2 13 Dec 07:12:34 07:16:16 28° 96° (E) 07:19:55 437.475
BEESAT 3 13 Dec 07:12:47 07:15:58 24° 248° (WSW) 07:19:05 437.485
XW-2C 13 Dec 07:18:39 07:22:22 48° 286° (WNW) 07:26:04 145.795 - 145.815
NO-84 13 Dec 07:23:45 07:26:40 60° 131° (SE) 07:29:47 435.350 FM
FO-29 13 Dec 07:24:09 07:30:37 31° 64° (ENE) 07:37:11 435.910
CUBEBUG 2 13 Dec 07:42:20 07:46:15 35° 98° (E) 07:50:17 437.445
JUGNU 13 Dec 07:43:19 07:46:11 14° 185° (S) 07:49:06 437.505
STRAND 1 13 Dec 07:45:35 07:50:41 73° 257° (WSW) 07:55:49 437.568
UWE-3 13 Dec 07:46:06 07:49:27 22° 95° (E) 07:52:50 435.000/436.395/437.385
BEESAT 2 13 Dec 07:48:04 07:51:48 38° 245° (WSW) 07:55:29 435.950
XW-2A 13 Dec 07:50:16 07:52:20 15° 94° (E) 07:54:22 145.665 - 145.685
LilacSat-2 13 Dec 07:53:49 07:56:26 17° 291° (WNW) 07:59:02 437.200
HO-68 13 Dec 08:02:55 08:10:07 83° 105° (ESE) 08:17:16 435.675
CUTE-I 13 Dec 08:07:06 08:11:47 32° 291° (WNW) 08:16:26 437.470
O/OREOS (USA 219) 13 Dec 08:09:57 08:12:05 13° 98° (E) 08:14:13 437.305
XW-2D 13 Dec 08:11:39 08:12:59 12° 294° (WNW) 08:14:18 145.860 - 145.880
ZACube-1 13 Dec 08:14:52 08:18:23 24° 96° (E) 08:21:57 437.345
AO-85 13 Dec 08:23:00 08:27:52 74° 243° (WSW) 08:33:03 145.980
NUDT-PHONESAT 13 Dec 08:23:24 08:24:54 12° 293° (WNW) 08:26:24 437.300
KAITUO 1B 13 Dec 08:24:20 08:25:36 11° 293° (WNW) 08:26:53 145.475/437.950
SRMSAT 13 Dec 08:27:46 08:30:25 13° 172° (S) 08:33:04 437.500
SEEDS 13 Dec 08:28:11 08:32:23 61° 285° (WNW) 08:36:32 437.485
Oscar 11 13 Dec 08:37:35 08:41:06 23° 95° (E) 08:44:35 .
CUTE 1.7 + AOD 2 13 Dec 08:48:36 08:51:54 22° 291° (WNW) 08:55:12 437.475
AO-73 13 Dec 08:49:17 08:53:33 52° 100° (E) 08:57:52 145.935
AAUSAT CUBESAT 2 13 Dec 08:52:10 08:56:21 78° 283° (WNW) 09:00:28 437.432
NO-84 13 Dec 09:02:37 09:04:15 13° 331° (NNW) 09:05:57 435.350 FM
FO-29 13 Dec 09:07:40 09:15:06 56° 261° (W) 09:22:50 435.910
CUBEBUG 2 13 Dec 09:19:47 09:22:36 17° 292° (WNW) 09:25:28 437.445
UWE-3 13 Dec 09:22:09 09:25:51 29° 289° (WNW) 09:29:37 435.000/436.395/437.385
XW-2A 13 Dec 09:22:10 09:24:58 24° 288° (WNW) 09:27:46 145.665 - 145.685
PRISM 13 Dec 09:31:43 09:33:34 13° 65° (ENE) 09:35:24 437.425
O/OREOS (USA 219) 13 Dec 09:46:31 09:50:59 51° 293° (WNW) 09:55:27 437.305
ZACube-1 13 Dec 09:50:55 09:54:34 27° 289° (WNW) 09:58:17 437.345
HO-68 13 Dec 09:52:30 09:56:57 18° 302° (WNW) 10:01:24 435.675
TIGRISAT 13 Dec 09:53:26 09:57:45 76° 75° (ENE) 10:02:01 435.000
UNISAT 6 13 Dec 09:56:15 10:00:35 89° 258° (WSW) 10:04:52 437.425
DELFI C3 13 Dec 10:09:11 10:13:01 49° 100° (E) 10:16:48 145.870
Oscar 11 13 Dec 10:13:30 10:17:09 26° 290° (WNW) 10:20:46 .
SRMSAT 13 Dec 10:15:35 10:18:46 15° 183° (S) 10:21:56 437.500
AO-73 13 Dec 10:27:17 10:29:19 13° 294° (WNW) 10:31:21 145.935
Max Valier Satellite 13 Dec 10:38:54 10:42:39 84° 102° (ESE) 10:46:22 145.860
EO-79 13 Dec 10:55:43 10:57:33 13° 65° (ENE) 10:59:23 145.935-145.965
PRISM 13 Dec 11:04:21 11:08:22 48° 260° (W) 11:12:24 437.425
EO-88 13 Dec 11:10:44 11:14:20 53° 285° (WNW) 11:17:54 145.990 - 145.960
POLYITAN 1 13 Dec 11:16:42 11:19:55 22° 69° (ENE) 11:23:09 437.675
AIST 2D 13 Dec 11:29:51 11:33:20 70° 259° (W) 11:36:51 435.315
QB50P2 13 Dec 11:41:19 11:45:21 48° 74° (ENE) 11:49:24 145.880/145.840
nSIGHT-1 13 Dec 11:43:31 11:46:23 30° 133° (SE) 11:49:15 .
DELFI C3 13 Dec 11:46:14 11:47:16 11° 294° (WNW) 11:48:17 145.870
LO-87 13 Dec 11:46:16 11:49:37 40° 99° (E) 11:52:58 145.935 - 145.965
DUCHIFAT 1 13 Dec 11:49:06 11:52:59 39° 73° (ENE) 11:56:52 145.980
ESTCUBE 1 13 Dec 12:05:33 12:10:00 52° 100° (E) 12:14:24 437.505/2401.250
SRMSAT 13 Dec 12:06:23 12:07:06 10° 193° (SSW) 12:07:48 437.500
Oscar 19 13 Dec 12:07:01 12:07:40 10° 60° (ENE) 12:08:20 437.125/150
NANOSAT C BR1 13 Dec 12:14:20 12:18:30 85° 257° (WSW) 12:22:41 145.865
ISS 13 Dec 12:19:33 12:22:46 59° 137° (SE) 12:26:01 437.550
EO-79 13 Dec 12:28:48 12:32:50 48° 260° (W) 12:36:55 145.935-145.965
Gurwin Techsat 1B 13 Dec 12:34:30 12:37:28 15° 63° (ENE) 12:40:26 435.225
BUGSAT 1 13 Dec 12:35:57 12:39:29 30° 71° (ENE) 12:43:00 437.445
AO-91 13 Dec 12:42:37 12:46:24 22° 70° (ENE) 12:49:57 145.960
POLYITAN 1 13 Dec 12:52:01 12:55:32 26° 264° (W) 12:59:04 437.675
SPROUT 13 Dec 13:01:32 13:05:40 49° 100° (E) 13:09:46 437.525
QB50P2 13 Dec 13:19:49 13:21:22 12° 268° (W) 13:22:54 145.880/145.840
nSIGHT-1 13 Dec 13:19:53 13:22:35 24° 329° (NNW) 13:25:19 .
LO-87 13 Dec 13:22:04 13:22:36 10° 293° (WNW) 13:23:07 145.935 - 145.965
DUCHIFAT 1 13 Dec 13:26:31 13:28:47 14° 267° (W) 13:31:02 145.980
Oscar 19 13 Dec 13:41:03 13:46:10 89° 256° (WSW) 13:51:21 437.125/150
ESTCUBE 1 13 Dec 13:43:58 13:46:19 14° 295° (WNW) 13:48:39 437.505/2401.250
VELOX 1 13 Dec 13:45:32 13:49:58 88° 277° (W) 13:54:20 145.980
ISS 13 Dec 13:57:12 13:59:30 17° 333° (NNW) 14:01:49 437.550
NO-84 13 Dec 13:57:53 14:00:42 19° 34° (NE) 14:03:38 435.350 FM
Gurwin Techsat 1B 13 Dec 14:11:33 14:16:49 64° 258° (WSW) 14:22:07 435.225
BUGSAT 1 13 Dec 14:12:03 14:14:50 18° 265° (W) 14:17:36 437.445
AO-91 13 Dec 14:17:59 14:22:38 36° 261° (W) 14:26:56 145.960
UKube-1 13 Dec 14:33:13 14:37:12 36° 98° (E) 14:41:08 .
SPROUT 13 Dec 14:39:12 14:41:05 13° 294° (WNW) 14:42:59 437.525
RS-15 13 Dec 14:41:18 14:52:49 50° 109° (ESE) 15:04:19 29.354- 29.394
AO-7 13 Dec 14:42:46 14:50:34 48° 65° (ENE) 14:58:24 .
DX 1 13 Dec 14:45:42 14:50:04 88° 105° (ESE) 14:54:23 434.975-435.025
ITAMSAT 1 13 Dec 14:51:26 14:55:28 23° 66° (ENE) 14:59:30 435.822/435.867
YUBILEINY 13 Dec 14:53:10 15:01:57 63° 80° (E) 15:10:35 435.215
50 SAT 13 Dec 14:57:22 15:00:23 42° 286° (WNW) 15:03:21 437.505
M-CUBED/EXP-1 PRIME 13 Dec 15:22:25 15:26:39 88° 75° (ENE) 15:31:11 437.505
MOZHAYETS 4 13 Dec 15:29:34 15:33:44 32° 97° (E) 15:37:53
NO-84 13 Dec 15:34:21 15:38:13 59° 229° (SW) 15:42:19 435.350 FM
BEESAT 13 Dec 15:38:49 15:42:51 27° 96° (E) 15:46:52 436.000
SO-50 13 Dec 15:42:52 15:46:48 32° 113° (ESE) 15:50:47 436.795
ITUPSAT 1 13 Dec 16:05:45 16:10:25 51° 101° (E) 16:15:03 437.325
UKube-1 13 Dec 16:10:02 16:12:54 18° 293° (WNW) 16:15:46 .
DOVE 4 13 Dec 16:29:45 16:34:38 40° 72° (ENE) 16:39:28 437.250
ITAMSAT 1 13 Dec 16:29:48 16:34:39 39° 261° (W) 16:39:32 435.822/435.867
AO-7 13 Dec 16:36:00 16:43:23 36° 261° (W) 16:50:52 .
CUBESAT XI-V 13 Dec 16:49:05 16:53:44 55° 100° (E) 16:58:20 437.345
YUBILEINY 13 Dec 16:51:15 16:57:58 25° 278° (W) 17:04:40 435.215
RS-15 13 Dec 16:53:25 17:05:17 51° 310° (NW) 17:17:06 29.354- 29.394
LilacSat-2 13 Dec 17:00:50 17:01:49 11° 66° (ENE) 17:02:48 437.200
MOZHAYETS 4 13 Dec 17:07:08 17:10:39 22° 292° (WNW) 17:14:11
XW-2D 13 Dec 17:15:27 17:17:46 16° 68° (ENE) 17:20:06 145.860 - 145.880
BEESAT 13 Dec 17:16:30 17:20:30 28° 291° (WNW) 17:24:31 436.000
SO-50 13 Dec 17:23:34 17:27:15 25° 310° (NW) 17:31:00 436.795
NUDT-PHONESAT 13 Dec 17:25:59 17:27:46 13° 67° (ENE) 17:29:33 437.300
KAITUO 1B 13 Dec 17:27:07 17:29:14 15° 68° (ENE) 17:31:24 145.475/437.950
KKS-1 13 Dec 17:28:43 17:32:22 25° 96° (E) 17:35:59 437.445
XW-2B 13 Dec 17:30:30 17:33:30 23° 70° (ENE) 17:36:31 145.730 - 145.750
XW-2F 13 Dec 17:43:17 17:46:37 31° 72° (ENE) 17:49:59 145.980 - 146.000
ITUPSAT 1 13 Dec 17:45:00 17:47:46 16° 296° (WNW) 17:50:32 437.325
CUTE-I 13 Dec 17:46:36 17:51:31 38° 70° (ENE) 17:56:26 437.470
XW-2C 13 Dec 17:57:02 18:00:41 52° 75° (ENE) 18:04:24 145.795 - 145.815
CUTE 1.7 + AOD 2 13 Dec 18:03:53 18:06:22 15° 67° (ENE) 18:08:53 437.475
DOVE 4 13 Dec 18:08:14 18:12:21 23° 266° (W) 18:16:25 437.250
nSIGHT-1 13 Dec 18:12:16 18:14:39 19° 28° (NNE) 18:17:01 .
STARS 13 Dec 18:14:58 18:18:51 31° 98° (E) 18:22:42 437.465
PCSat 13 Dec 18:15:17 18:18:21 15° 104° (ESE) 18:21:27 145.827
O/OREOS (USA 219) 13 Dec 18:20:29 18:23:38 18° 59° (ENE) 18:26:45 437.305
CUBESAT XI-V 13 Dec 18:28:08 18:30:34 14° 295° (WNW) 18:33:01 437.345
HO-68 13 Dec 18:28:44 18:35:34 49° 68° (ENE) 18:42:25 435.675
LilacSat-2 13 Dec 18:31:57 18:35:36 46° 261° (W) 18:39:18 437.200
CUBEBUG 2 13 Dec 18:38:44 18:41:59 22° 70° (ENE) 18:45:12 437.445
UWE-3 13 Dec 18:42:24 18:44:16 13° 66° (ENE) 18:46:08 435.000/436.395/437.385
XW-2D 13 Dec 18:48:19 18:51:38 30° 263° (W) 18:55:01 145.860 - 145.880
ISS 13 Dec 18:49:28 18:52:24 29° 33° (NNE) 18:55:18 437.550
NUDT-PHONESAT 13 Dec 18:57:53 19:01:15 34° 262° (W) 19:04:39 437.300
KAITUO 1B 13 Dec 18:59:34 19:02:54 31° 263° (W) 19:06:17 145.475/437.950
XW-2B 13 Dec 19:04:45 19:07:34 20° 265° (W) 19:10:25 145.730 - 145.750
KKS-1 13 Dec 19:05:09 19:08:49 26° 291° (WNW) 19:12:27 437.445
ZACube-1 13 Dec 19:09:53 19:11:54 13° 66° (ENE) 19:13:54 437.345
RS-15 13 Dec 19:13:40 19:21:45 19° 340° (NNW) 19:29:43 29.354- 29.394
SEEDS 13 Dec 19:16:52 19:21:02 64° 75° (ENE) 19:25:14 437.485
XW-2F 13 Dec 19:18:39 19:20:47 15° 267° (W) 19:22:55 145.980 - 146.000
CUTE-I 13 Dec 19:27:18 19:31:36 24° 265° (W) 19:35:55 437.470
Oscar 11 13 Dec 19:31:14 19:33:31 14° 66° (ENE) 19:35:49 .
CUTE 1.7 + AOD 2 13 Dec 19:37:51 19:41:50 40° 262° (W) 19:45:52 437.475
AAUSAT CUBESAT 2 13 Dec 19:39:25 19:43:25 47° 74° (ENE) 19:47:27 437.432
AO-73 13 Dec 19:42:50 19:46:21 28° 71° (ENE) 19:49:54 145.935
nSIGHT-1 13 Dec 19:47:55 19:51:01 48° 225° (SW) 19:54:06 .
XW-2A 13 Dec 19:49:55 19:53:12 66° 76° (ENE) 19:56:32 145.665 - 145.685
STARS 13 Dec 19:51:44 19:54:58 21° 292° (WNW) 19:58:11 437.465
PCSat 13 Dec 19:55:49 20:01:09 62° 299° (WNW) 20:06:33 145.827
STRAND 1 13 Dec 19:58:26 20:03:19 46° 99° (E) 20:08:12 437.568
O/OREOS (USA 219) 13 Dec 19:59:01 20:03:10 38° 255° (WSW) 20:07:17 437.305
CUBEBUG 2 13 Dec 20:14:54 20:18:28 26° 264° (W) 20:22:00 437.445
UWE-3 13 Dec 20:16:18 20:20:19 45° 261° (W) 20:24:18 435.000/436.395/437.385
HO-68 13 Dec 20:17:23 20:23:26 29° 264° (W) 20:29:32 435.675
FO-29 13 Dec 20:21:58 20:27:31 26° 92° (E) 20:32:29 435.910
ISS 13 Dec 20:26:02 20:28:48 25° 229° (SW) 20:31:33 437.550
ZACube-1 13 Dec 20:43:50 20:47:47 43° 261° (W) 20:51:44 437.345
DELFI C3 13 Dec 20:52:26 20:55:26 21° 70° (ENE) 20:58:27 145.870
BEESAT 3 13 Dec 20:58:41 21:02:39 89° 120° (ESE) 21:06:40 437.485
Oscar 11 13 Dec 21:05:07 21:09:13 45° 261° (W) 21:13:23 .
Max Valier Satellite 13 Dec 21:15:38 21:18:37 24° 71° (ENE) 21:21:36 145.860
AAUSAT CUBESAT 2 13 Dec 21:17:30 21:19:05 12° 269° (W) 21:20:42 437.432
AO-73 13 Dec 21:19:35 21:22:34 19° 266° (W) 21:25:35 145.935
RS-15 13 Dec 21:33:26 21:41:06 18° 18° (NNE) 21:48:32 29.354- 29.394
BEESAT 2 13 Dec 21:36:05 21:40:01 58° 116° (ESE) 21:43:59 435.950
STRAND 1 13 Dec 21:38:35 21:42:08 19° 295° (WNW) 21:45:40 437.568
EO-88 13 Dec 21:45:36 21:49:00 39° 74° (ENE) 21:52:25 145.990 - 145.960
TIGRISAT 13 Dec 21:47:44 21:50:46 18° 94° (E) 21:53:50 435.000
UNISAT 6 13 Dec 21:50:26 21:53:49 22° 95° (E) 21:57:15 437.425
FO-29 13 Dec 22:06:17 22:12:49 46° 291° (WNW) 22:18:35 435.910
LO-87 13 Dec 22:21:36 22:23:00 12° 68° (ENE) 22:24:24 145.935 - 145.965
DELFI C3 13 Dec 22:26:40 22:29:59 25° 264° (W) 22:33:20 145.870
AO-85 13 Dec 22:35:42 22:39:31 62° 117° (ESE) 22:43:31 145.980
FALCONSAT 3 13 Dec 22:39:16 22:42:07 21° 155° (SSE) 22:44:58 435.103
PRISM 13 Dec 22:48:04 22:51:28 25° 96° (E) 22:54:49 437.425
Max Valier Satellite 13 Dec 22:49:53 22:52:22 17° 266° (W) 22:54:52 145.860
ESTCUBE 1 13 Dec 23:02:41 23:06:47 35° 71° (ENE) 23:10:55 437.505/2401.250
BEESAT 2 13 Dec 23:16:05 23:18:04 13° 314° (NW) 23:20:05 435.950
EO-88 13 Dec 23:22:06 23:22:48 10° 268° (W) 23:23:29 145.990 - 145.960
TIGRISAT 13 Dec 23:23:35 23:27:30 34° 288° (WNW) 23:31:28 435.000
UNISAT 6 13 Dec 23:26:45 23:30:29 29° 289° (WNW) 23:34:17 437.425
RS-15 13 Dec 23:46:18 23:57:39 48° 49° (NE) 00:08:21 29.354- 29.394
SPROUT 13 Dec 23:52:36 23:56:12 28° 71° (ENE) 23:59:49 437.525
LO-87 13 Dec 23:52:47 23:56:02 34° 262° (W) 23:59:17 145.935 - 145.965
NANOSAT C BR1 14 Dec 00:01:39 00:04:29 17° 94° (E) 00:07:19 145.865
EO-79 14 Dec 00:15:36 00:19:19 29° 97° (E) 00:23:00 145.935-145.965
SO-50 14 Dec 00:16:14 00:19:34 19° 48° (NE) 00:22:54 436.795
FALCONSAT 3 14 Dec 00:17:14 00:20:51 56° 170° (S) 00:24:28 435.103
AO-85 14 Dec 00:18:44 00:20:22 12° 316° (NW) 00:22:02 145.980
